GALAXY 19 (G-19)

Last updated on Wed Sep 09 2026 00:02:58 GMT+0000 (Coordinated Universal Time)

1 33376U 08045A 26251.47475012 -.00000160 00000+0 00000+0 0 9991 2 33376 0.0489 257.6372 0002662 292.9261 230.8913 1.00272888 65737
UTC large
Height (km)
Speed (km/s)
/
Latitude / Longitude
Inclination (degrees)
Orbital Period (minutes)
Azimuth
Elevation
Range (km)
Doppler Factor

Next 0 passes for location: London (51.5072 / 0.1276)

No passes found over London.
GALAXY 19 (G-19)